Location: Roland
(31.1349°N, 85.4372°W)
Time: 04:22:19
(UTC+00:00)

Vanguard 2 Rocket - Pass Details

Date: 05 December 2021
Orbit: 554 x 3324 km, 32.9° (Epoch: 16 January)

Event Time Altitude Azimuth Distance (km) Brightness Sun altitude
Rises 23:56:41 0° 261° (W) 3,161 11.5 -16.3°
Reaches altitude 10° 23:58:39 10° 261° (W) 2,419 10.4 -16.7°
Maximum altitude 00:04:20 85° 350° (N) 1,148 7.3 -17.9°
Enters shadow 00:09:52 27° 79° (ENE) 2,593 8.6 -19.0°
